Volver al catálogo

SES 10

ActivoComunicacionesGEO
NORAD 42432·PAYLOAD·🇱🇺 Luxembourg

Lanzado Mar 30, 2017 desde Cape Canaveral Space Force Station

Loading…

TLE

ActualizadoSource: CelesTrak SupGP

Época: Sep 13, 2026, 23:44 UTC

1 42432C 17017A   26256.98958333 -.00003447  00000+0  00000+0 0  2563
2 42432   0.0013 105.7668 0002625  68.6049 107.9645  1.00270893    15

Sigue SES 10 en tiempo real con AllMySat

Download on the App Store